071  
ASUS43 KEAX 232310  
RWREAX  
 
WEATHER ROUNDUP FOR EASTERN KANSAS AND NORTHWEST MISSOURI  
NATIONAL WEATHER SERVICE KANSAS CITY/PLEASANT HILL MO  
600 PM CDT SAT MAR 23 2019  
 
KSZ040-057-103>105-MOZ028-029-037-043-240000-   
..KANSAS CITY METROPOLITAN AREA
 
 
 
CITY SKY/WX TMP DP RH WIND PRES REMARKS
 
K.C. INTL CLOUDY 57 46 66 S9 30.01R  
K.C. DOWNTOWN CLOUDY 60 45 57 SE7 30.00R  
LEES SUMMIT PTSUNNY 56 45 66 S8 30.01S  
OLATHE - IXD CLOUDY 57 47 69 S8 30.01S  
OLATHE - OJC CLOUDY 56 47 71 SW9 30.01R  
LAWRENCE CLOUDY 57 47 69 S8 30.00S  
 

 
 
MOZ001>008-011>017-020>025-030>033-038>040-044>046-053-054-240000-   
..NORTHERN AND CENTRAL MISSOURI
 
 
 
CITY SKY/WX TMP DP RH WIND PRES REMARKS
 
ST. JOSEPH N/A N/A N/A N/A MISG 30.02F  
MOSBY CLOUDY 59 45 58 SE7 30.03R  
WARRENSBURG CLOUDY 54 45 71 SE20G26 30.00F  
WHITEMAN AFB CLOUDY 53 46 78 SE25G32 29.96F  
CLINTON LGT RAIN 50 46 87 S15G28 30.06F  
SEDALIA CLOUDY 52 32 46 S16 30.09S  
WARSAW NOT AVBL  
CHILLICOTHE N/A 59 39 47 SE9 30.05F  
KIRKSVILLE CLOUDY 55 36 48 SE12 30.11F  
 

 
 
MOZ041-047>049-056>058-063>065-088>090-097-240000-   
..EASTERN AND SOUTHERN MISSOURI
 
 
 
CITY SKY/WX TMP DP RH WIND PRES REMARKS
 
ST. LOUIS INTL CLOUDY 57 31 37 SE12 30.20F  
SPIRIT OF STL PTSUNNY 59 32 36 SE3 30.18F  
COLUMBIA CLOUDY 59 36 42 S10 30.14R  
JEFFERSON CITY CLOUDY 61 34 36 SE10G18 30.14R  
ROLLA LGT RAIN 54 36 50 SE17G23 30.16S  
OSAGE BEACH CLOUDY 58 37 45 SW6 30.16R  
SPRINGFIELD LGT RAIN 51 43 74 SE13 30.09S  
BRANSON LGT RAIN 48 45 87 SE15 30.11F  
JOPLIN LGT RAIN 51 49 92 NE6 30.05S FOG  
WEST PLAINS CLOUDY 51 46 83 E8 30.15F  
 

 
 
IAZ060-094-KSZ022-034>040-054-083-096-NEZ052-066-093-240000-    
..KANSAS...SOUTHEAST NEBRASKA AND IOWA
 
 
 
CITY SKY/WX TMP DP RH WIND PRES REMARKS
 
TOPEKA CLOUDY 57 46 66 S13 29.99S  
MANHATTAN CLOUDY 59 48 67 S13 29.92F  
EMPORIA CLOUDY 54 47 77 S20G28 29.97S  
CHANUTE CLOUDY 55 49 80 SE14 30.01R  
WICHITA PTSUNNY 62 49 62 SE13 29.92F  
OMAHA CLOUDY 52 39 61 E17G29 30.01F  
LINCOLN LGT RAIN 52 41 66 E15 29.97F  
FALLS CITY CLOUDY 52 40 63 E9 29.99F  
LAMONI LGT RAIN 52 40 63 E6 30.06F  
DES MOINES CLOUDY 53 32 44 SE12 30.10S  
 

 
 
 
 
CLICK HERE TO GO TO PREVIOUS BULLETINS.

The Nexlab MO Page
The Nexlab KS Page Main Text Page